Location: McFarlands Corners
(41.4117°N, 81.3382°W)
Time: 14:22:58
(UTC+00:00)

A-11 Canister half - Pass Details

Date: 22 February 2026
Orbit: 1513 x 1687 km, 47.2° (Epoch: 11 March)

Event Time Altitude Azimuth Distance (km) Brightness Sun altitude
Rises 05:21:01 0° 288° (WNW) 4,927 11.8 -58.5°
Enters shadow 05:23:23 - 290° (WNW) 4,192 11.4 -58.6°
Reaches altitude 10° 05:24:15 10° 291° (WNW) 3,924 - -58.6°
Maximum altitude 05:34:18 70° 15° (NNE) 1,715 - -58.8°
Drops below altitude 10° 05:43:59 10° 99° (E) 3,789 - -58.7°
Sets 05:47:03 0° 102° (ESE) 4,749 - -58.7°
